Ketchikan, AK

8:30 PM AKDT on July 24, 2017 (GMT -0800)
Ketchikan International

Weather History for PAKT - May, 2013

Change the Weather History Date:

Wednesday, May 1, 2013

  Actual Average Record
Temperature  
Mean Temperature 40 °F -  
Max Temperature 44 °F 53 °F 70 °F (1989)
Min Temperature 37 °F 39 °F 30 °F (1954)
Degree Days  
Heating Degree Days 25    
Moisture  
Dew Point 40 °F    
Average Humidity 100    
Maximum Humidity 100    
Minimum Humidity 93    
Precipitation  
Precipitation 3.20 in - - ()
Sea Level Pressure  
Sea Level Pressure 30.26 in    
Wind  
Wind Speed 16 mph (SE)    
Max Wind Speed 28 mph    
Max Gust Speed 38 mph    
Visibility 5 miles    
Events Rain    
Averages and records for this station are not official NWS values.
T = Trace of Precipitation, MM = Missing Value Source: NWS Daily Summary

Daily Weather History Graph

Daily Weather History Graph

Search for Another Location

Airport or City:

Trip Planner

Search our weather history database for the weather conditions in past years. The results will help you decide how hot, cold, wet, or windy it might be!

Date:

Astronomy

May. 01, 2013 Rise Set
Actual Time 5:04 AM AKDT 8:24 PM AKDT
Civil Twilight 4:20 AM AKDT 9:08 PM AKDT
Nautical Twilight 3:21 AM AKDT 10:08 PM AKDT
Astronomical Twilight 1:52 AM AKDT 11:42 PM AKDT
Moon 1:39 AM AKDT (5/1) 10:52 AM AKDT (5/1)
Length of Visible Light 16h 47m
Length of Day
15h 20m
Waning Gibbous, 57% of the Moon is Illuminated
May 1
Waning Gibbous
May 2
Last Quarter
May 9
New
May 17
First Quarter
May 24
Full

Hourly Weather History & Observations

Time (AKDT) Temp. Windchill Dew Point Humidity Pressure Visibility Wind Dir Wind Speed Gust Speed Precip Events Conditions
12:53 AM 37.9 °F 32.1 °F 36.0 °F 93% 30.38 in 4.0 mi SSE 8.1 mph - 0.06 in Rain Light Rain
1:53 AM 37.9 °F 34.4 °F 37.9 °F 100% 30.37 in 10.0 mi SSE 4.6 mph - 0.07 in Rain Light Rain
2:53 AM 39.0 °F 30.6 °F 37.9 °F 96% 30.35 in 10.0 mi SE 15.0 mph 20.7 mph 0.05 in Rain Light Rain
3:53 AM 37.9 °F 29.6 °F 37.9 °F 100% 30.33 in 7.0 mi SE 13.8 mph - 0.04 in Rain Light Rain
4:03 AM 37.4 °F 29.8 °F 37.4 °F 100% 30.33 in 8.0 mi SE 11.5 mph - 0.01 in Rain Light Rain
4:53 AM 37.9 °F 30.0 °F 37.9 °F 100% 30.32 in 9.0 mi SE 12.7 mph - 0.05 in Rain Light Rain
5:53 AM 39.0 °F 29.3 °F 39.0 °F 100% 30.29 in 10.0 mi SE 19.6 mph 29.9 mph 0.04 in Rain Light Rain
5:56 AM 39.2 °F 29.3 °F 39.2 °F 100% 30.29 in 9.0 mi SE 20.7 mph - 0.00 in Rain Light Rain
6:36 AM 39.2 °F 28.0 °F 39.2 °F 100% 30.27 in 5.0 mi SE 26.5 mph 33.4 mph 0.05 in Rain Light Rain
6:53 AM 39.0 °F 27.6 °F 39.0 °F 100% 30.27 in 8.0 mi SE 27.6 mph 38.0 mph 0.06 in Rain Light Rain
7:09 AM 37.4 °F 26.4 °F 37.4 °F 100% 30.27 in 8.0 mi SE 23.0 mph 34.5 mph 0.01 in Rain Light Rain
7:53 AM 37.9 °F 26.8 °F 37.9 °F 100% 30.27 in 5.0 mi SE 24.2 mph 34.5 mph 0.07 in Rain Light Rain
8:53 AM 39.0 °F 29.0 °F 39.0 °F 100% 30.27 in 5.0 mi SE 20.7 mph 29.9 mph 0.08 in Rain Rain
9:53 AM 37.9 °F 26.8 °F 37.9 °F 100% 30.26 in 3.0 mi SE 24.2 mph 32.2 mph 0.17 in Rain Rain
10:53 AM 39.0 °F 29.9 °F 39.0 °F 100% 30.25 in 3.0 mi SE 17.3 mph 32.2 mph 0.18 in Rain Light Rain
11:53 AM 37.9 °F 26.8 °F 37.9 °F 100% 30.24 in 3.0 mi SE 24.2 mph 32.2 mph 0.32 in Rain Heavy Rain
12:53 PM 42.8 °F 34.5 °F 42.8 °F 100% 30.24 in 3.0 mi SE 18.4 mph 31.1 mph N/A Rain Rain
1:53 PM 42.1 °F 32.8 °F 42.1 °F 100% 30.23 in 3.0 mi SE 21.9 mph 28.8 mph 0.21 in Rain Rain
2:53 PM 42.1 °F 33.9 °F 42.1 °F 100% 30.24 in 3.0 mi SSE 17.3 mph 27.6 mph 0.22 in Rain Rain
3:53 PM 43.0 °F 35.4 °F 43.0 °F 100% 30.24 in 3.0 mi SE 16.1 mph 35.7 mph 0.14 in Rain Rain
4:53 PM 43.0 °F 34.5 °F 43.0 °F 100% 30.22 in 3.0 mi SE 19.6 mph 29.9 mph 0.13 in Rain Rain
5:53 PM 43.0 °F 34.5 °F 43.0 °F 100% 30.23 in 3.0 mi SSE 19.6 mph 29.9 mph 0.16 in Rain Rain
6:53 PM 43.0 °F 34.5 °F 43.0 °F 100% 30.22 in 3.0 mi SE 19.6 mph 27.6 mph 0.09 in Rain Light Rain
7:53 PM 42.1 °F 33.9 °F 42.1 °F 100% 30.23 in 3.0 mi SSE 17.3 mph 27.6 mph 0.08 in Rain Light Rain
8:53 PM 43.0 °F 35.4 °F 43.0 °F 100% 30.23 in 3.0 mi SSE 16.1 mph 25.3 mph 0.17 in Rain Rain
9:16 PM 42.8 °F 35.4 °F 42.8 °F 100% 30.23 in 2.0 mi SE 15.0 mph - 0.07 in Rain Rain
9:28 PM 42.8 °F 35.8 °F 42.8 °F 100% 30.23 in 2.0 mi SSE 13.8 mph 25.3 mph 0.12 in Rain Rain
9:53 PM 43.0 °F 34.2 °F 43.0 °F 100% 30.23 in 2.0 mi SE 20.7 mph 26.5 mph 0.26 in Rain Heavy Rain
10:38 PM 42.8 °F 34.8 °F 42.8 °F 100% 30.23 in 3.0 mi SE 17.3 mph 24.2 mph 0.24 in Rain Rain
10:53 PM 43.0 °F 34.8 °F 43.0 °F 100% 30.24 in 3.0 mi SE 18.4 mph 27.6 mph 0.30 in Rain Rain
11:49 PM 42.8 °F 35.8 °F 42.8 °F 100% 30.23 in 4.0 mi SSE 13.8 mph - 0.23 in Rain Rain
11:53 PM 43.0 °F 36.0 °F 43.0 °F 100% 30.23 in 4.0 mi SSE 13.8 mph - 0.25 in Rain Rain